This is the latest recevied weather packets stored in our database for station/object IZ3MEZ-13. If no packets are shown the sender has not sent any weather packets the latest 10 day(s).
| Time | Temp. | Humidity | Pressure | Rain* | Wind** | Luminosity | Snow |
|---|---|---|---|---|---|---|---|
| 1777956919 | 15.56° C | 91% | 1014.6 hPa | 0 mm | - | 31 W/m² | - |
| 1777956328 | 15.56° C | 91% | 1014.8 hPa | 0 mm | - | 17 W/m² | - |
| 1777955718 | 15.56° C | 91% | 1014.8 hPa | 0 mm | - | 6 W/m² | - |
| 1777955119 | 15.56° C | 91% | 1015 hPa | 0 mm | - | 1 W/m² | - |
| 1777954524 | 15.56° C | 91% | 1014.7 hPa | 0 mm | - | 0 W/m² | - |
| 1777953916 | 15° C | 90% | 1014.8 hPa | 0 mm | - | 0 W/m² | - |
| 1777943722 | 13.89° C | 88% | 1015.7 hPa | 0 mm | - | 0 W/m² | - |
| 1777943117 | 13.89° C | 88% | 1015.8 hPa | 0 mm | - | 0 W/m² | - |
| 1777942518 | 13.33° C | 87% | 1015.9 hPa | 0 mm | - | 0 W/m² | - |
| 1777941925 | 12.78° C | 86% | 1016.2 hPa | 0 mm | - | 0 W/m² | - |
| 1777941321 | 12.78° C | 85% | 1016.3 hPa | 0 mm | - | 0 W/m² | - |
| 1777940720 | 12.22° C | 85% | 1016.4 hPa | 0 mm | - | 0 W/m² | - |
| 1777932931 | 13.33° C | 76% | 1017.5 hPa | 0 mm | - | 0 W/m² | - |
| 1777928722 | 14.44° C | 71% | 1017.3 hPa | 0 mm | - | 0 W/m² | - |
| 1777927519 | 15° C | 70% | 1017.1 hPa | 0 mm | - | 0 W/m² | - |
| 1777924517 | 16.11° C | 63% | 1017.1 hPa | 0 mm | - | 0 W/m² | - |
| 1777922719 | 17.22° C | 60% | 1017.1 hPa | 0 mm | - | 0 W/m² | - |
| 1777919117 | 20° C | 55% | 1016.7 hPa | 0 mm | - | 0 W/m² | - |
| 1777918524 | 20.56° C | 54% | 1016.6 hPa | 0 mm | - | 3 W/m² | - |
| 1777915522 | 22.22° C | 53% | 1016.3 hPa | 0 mm | - | 31 W/m² | - |
| 1777914928 | 22.22° C | 54% | 1016.4 hPa | 0 mm | - | 32 W/m² | - |
| 1777914321 | 22.78° C | 53% | 1016.2 hPa | 0 mm | - | 33 W/m² | - |
| 1777910719 | 25.56° C | 45% | 1016.5 hPa | 0 mm | - | 84 W/m² | - |
| 1777902918 | 27.22° C | 50% | 1017.1 hPa | 0 mm | - | 189 W/m² | - |
| 1777901731 | 28.33° C | 46% | 1017.1 hPa | 0 mm | - | 278 W/m² | - |
* Rain latest hour (hover to see other rain measurements)
** Current wind speed in m/s (hover to see current wind gust speed)